Regional Weather Roundup
Issued by NWS

Home | Current Version | Previous Version | Text Only | Print | Product List | Glossary Off
Versions: 1 2 3 4 5 6 7 8 9 10 11 12 13 14 15 16 17 18 19 20 21 22 23 24 25 26 27 28 29 30 31 32 33 34 35 36 37 38 39 40 41 42 43 44 45 46 47 48 49 50

000
ASUS45 KABQ 310201
RWRNM
NEW MEXICO REGIONAL WEATHER ROUNDUP
NATIONAL WEATHER SERVICE ALBUQUERQUE NM
800 PM MDT TUE AUG 30 2016

NOTE: "FAIR" MEANS FEW OR NO CLOUDS BELOW 12,000 FEET AGL WITH NO
       SIGNIFICANT WEATHER OR OBSTRUCTIONS TO VISION.

      THIS PRODUCT IS RELEASED AS TWO VERSIONS.  ONE VERSION NEAR
      THE TOP OF THE HOUR CONTAINING PRELIMINARY DATA FROM ALBUQUERQUE
      AND OTHER STATIONS.  A FINAL VERSION WITH ADDITIONAL DATA IS
      ISSUED ABOUT 10 MINUTES AFTER THE HOUR.

NMZ501-503-504-510>518-310300-
NORTHWEST PLATEAU/NORTHCENTRAL MOUNTAINS

CITY           SKY/WX    TMP DP  RH WIND       PRES   REMARKS
FARMINGTON     FAIR      78  39  24 SE5       30.18R
SANTA FE       FAIR      65  52  62 SE14      30.31R
TAOS           CLOUDY    59  48  67 NE6       30.38R
ANGEL FIRE     FAIR      52  49  90 CALM      30.47R

$$
NMZ402-403-502-505>509-310300-
WESTCENTRAL MOUNTAINS/SOUTHWEST MOUNTAINS

CITY           SKY/WX    TMP DP  RH WIND       PRES   REMARKS
GALLUP         FAIR      71  42  35 E7        30.26R
GRANTS         CLOUDY    71  43  35 SE7       30.29S
SILVER CITY    MOCLDY    73  53  51 SE12      30.19R

$$
NMZ407-409-411-412-310300-
SOUTHERN DESERTS

CITY           SKY/WX    TMP DP  RH WIND       PRES   REMARKS
DEMING         FAIR      77  54  44 SE10      30.13R
LAS CRUCES     FAIR      75  57  53 SE12G20   30.16R
HOLLOMAN AFB   CLOUDY    78  58  50 W7        30.12R
ALAMOGORDO     MOCLDY    75  55  50 CALM      30.14R
T OR C         FAIR      78  51  38 SE12      30.15R

$$
NMZ519>523-310300-
CENTRAL VALLEYS/CENTRAL HIGHLANDS

CITY           SKY/WX    TMP DP  RH WIND       PRES   REMARKS
ALBUQUERQUE    FAIR      71  55  56 E18       30.23R
DOUBLE EAGLE   MOCLDY    70  55  60 E17       30.27R
MORIARTY ARPT  FAIR      63  53  72 SE5       30.34R
CLINES CORNERS FAIR      57  54  89 E12       30.38R
BELEN          FAIR      73  52  48 E8        30.21R
SOCORRO        FAIR      72  53  50 SW5       30.21R

$$
NMZ524>526-539-540-310300-
SOUTHCENTRAL MOUNTAINS

CITY           SKY/WX    TMP DP  RH WIND       PRES   REMARKS
RUIDOSO        NOT AVBL

$$
NMZ527>531-310300-
NORTHEAST HIGHLANDS/NORTHEAST PLAINS

CITY           SKY/WX    TMP DP  RH WIND       PRES   REMARKS
LAS VEGAS      CLOUDY    57  52  83 N10       30.40R
RATON          FAIR      61  54  77 SW9       30.34R
CLAYTON        MOCLDY    64  62  93 S3        30.28S

$$
NMZ532>537-310300-
EASTCENTRAL PLAINS

CITY           SKY/WX    TMP DP  RH WIND       PRES   REMARKS
TUCUMCARI      LGT RAIN  67  64  90 SE5       30.23R
CANNON AFB     MOCLDY    67  67 100 E10       30.25R
CLOVIS AIRPORT CLOUDY    64  61  88 E8        30.24S

$$
NMZ028-029-538-310300-
SOUTHEAST PLAINS

CITY           SKY/WX    TMP DP  RH WIND       PRES   REMARKS
ROSWELL        HVY RAIN  68  65  90 E13       30.19R FOG
ARTESIA        HVY RAIN  66  66 100 NE8       30.19R
CARLSBAD       FAIR      70  65  84 NE6       30.14S
HOBBS          FAIR      68  68 100 N10       30.18S


$$




USA.gov is the U.S. government's official web portal to all federal, state and local government web resources and services.